Home   Weather   Alta   Past weeks

Flag for Norway Past Weather in Alta, Norway — Yesterday and Last 2 Weeks

Now
30 °F

Chilly.


Feels Like: 30 °F
Forecast: 21 / 38 °F
Wind: 1 mph from East

Location: Alta Lufthavn

Current Time: Apr 27, 2017 at 10:54:48 pm

Latest Report: Apr 27, 2017 at 10:00 pm


Visibility: N/A

Pressure: 30.09 "Hg

Humidity: 84%

Dew Point: 26 °F

Location of AltaLocation

Past Weather in Alta — Graph

°F

Alta Temperature Yesterday

Maximum temperature yesterday: 39 °F (at 3:00 pm)
Minimum temperature yesterday: 26 °F (at 2:00 am)
Average temperature yesterday: 31 °F

High & Low Weather Summary for the Past Weeks

 TemperatureHumidityPressure
High39 °F (Apr 26, 3:00 pm)95% (Apr 20, 10:00 pm)30.34 "Hg (Apr 20, 10:00 pm)
Low16 °F (Apr 24, 4:00 am)43% (Apr 23, 3:00 pm)29.15 "Hg (Apr 21, 9:00 am)
Average30 °F69%29.86 "Hg
* Reported Apr 12 9:00 pm — Apr 27 9:00 pm, Alta, Weather by CustomWeather, © 2017

Note: Actual official high and low records may vary slightly from our data, if they occured in-between our weather recording intervals... More about our weather records

Advertising

Alta Weather History for the Previous 24 Hours

Scroll right to see more
 ConditionsComfort  
Time TempWeatherWind HumidityBarometerVisibility
9:00 pm
Thu, Apr 27
33 °FChilly.3 mph78%30.07 "HgN/A
8:00 pm35 °FChilly.2 mph72%30.05 "HgN/A
7:00 pm35 °FChilly.3 mph71%30.04 "HgN/A
6:00 pm35 °FChilly.5 mph72%30.02 "HgN/A
5:00 pm37 °FChilly.3 mph60%30.00 "HgN/A
4:00 pm36 °FChilly.3 mph61%29.98 "HgN/A
3:00 pm36 °FChilly.5 mph61%29.97 "HgN/A
2:00 pm37 °FChilly.3 mph59%29.95 "HgN/A
1:00 pm37 °FChilly.3 mph60%29.93 "HgN/A
12:00 pm38 °FChilly.2 mph57%29.92 "HgN/A
11:00 am37 °FChilly.2 mph58%29.90 "HgN/A
10:00 am34 °FChilly.5 mph63%29.88 "HgN/A
9:00 am33 °FChilly.3 mph65%29.87 "HgN/A
8:00 am31 °FChilly.6 mph73%29.85 "HgN/A
7:00 am31 °FChilly.3 mph72%29.84 "HgN/A
6:00 am30 °FChilly.5 mph73%29.83 "HgN/A
5:00 am31 °FChilly.3 mph70%29.82 "HgN/A
4:00 am28 °FChilly.1 mph79%29.80 "HgN/A
3:00 am27 °FChilly.1 mph81%29.80 "HgN/A
2:00 am27 °FChilly.5 mph83%29.78 "HgN/A
1:00 am27 °FChilly.1 mph79%29.78 "HgN/A
12:00 am30 °FChilly.8 mph75%29.77 "HgN/A
11:00 pm
Wed, Apr 26
30 °FChilly.6 mph77%29.77 "HgN/A
10:00 pm31 °FChilly.5 mph77%29.77 "HgN/A
Weather by CustomWeather, © 2017

See weather overviewHow to use our weather pages